Overview Statistics Trail Chart Weather Telemetry Raw packets
 

This is the latest recevied weather packets stored in our database for station/object N0HOT. If no packets are shown the sender has not sent any weather packets the latest 10 day(s).

<< 64 65 66 67 68 69 70 >>
Time Temp. Humidity Pressure Rain* Wind** Luminosity Snow
1788206718 30.56° C 67% 1009.8 hPa 0 mm - 166 W/m² -
1788206412 30.56° C 64% 1009.8 hPa 0 mm - 134 W/m² -
1788206108 31.11° C 63% 1009.8 hPa 0 mm - 111 W/m² -
1788205808 31.11° C 64% 1009.4 hPa 0 mm - 140 W/m² -
1788205503 31.11° C 64% 1010.1 hPa 0 mm - 169 W/m² -
1788205203 31.11° C 64% 1009.8 hPa 0 mm - 110 W/m² -
1788204898 31.67° C 64% 1010.1 hPa 0 mm - 88 W/m² -
1788204593 32.22° C 63% 1010.1 hPa 0 mm - 87 W/m² -
1788204288 32.78° C 64% 1010.1 hPa 0 mm - 85 W/m² -
1788203983 32.78° C 64% 1010.5 hPa 0 mm - 99 W/m² -
1788203679 33.33° C 61% 1010.1 hPa 0 mm - 119 W/m² -
1788203375 33.89° C 58% 1009.8 hPa 0 mm - 115 W/m² -
1788203070 33.89° C 57% 1009.8 hPa 0 mm - 143 W/m² -
1788202769 33.89° C 56% 1009.8 hPa 0 mm - 186 W/m² -
1788202465 33.89° C 55% 1009.8 hPa 0 mm - 739 W/m² -
1788202165 33.89° C 55% 1009.8 hPa 0 mm - 296 W/m² -
1788201859 33.89° C 54% 1009.8 hPa 0 mm - 184 W/m² -
1788201555 33.33° C 55% 1009.8 hPa 0 mm - 734 W/m² -
1788201254 33.33° C 55% 1010.1 hPa 0 mm - 363 W/m² -
1788200954 33.33° C 55% 1010.1 hPa 0 mm - 333 W/m² -
1788200649 33.33° C 55% 1010.1 hPa 0 mm - 457 W/m² -
1788200344 33.89° C 54% 1010.1 hPa 0 mm - 645 W/m² -
1788200040 33.89° C 56% 1010.1 hPa 0 mm - 772 W/m² -
1788199734 33.89° C 56% 1010.5 hPa 0 mm - 324 W/m² -
1788199429 33.33° C 58% 1010.5 hPa 0 mm - 677 W/m² -

* Rain latest hour (hover to see other rain measurements)
** Current wind speed in m/s (hover to see current wind gust speed)